Wind_Speed
32 32 32 32 34 35 35 34 32 30 29 28 28 28 27 25 24 23 21 20 19 18 17 17 16 15 14 14 14 14 14 13 13 12 12 12 11 11 11 11 10 10 10 10 10 11 11 11 11
32 33 33 33 35 35 33 33 33 31 30 29 29 30 29 27 25 23 22 20 20 19 18 18 17 16 15 15 15 15 14 15 15 14 14 14 13 12 12 12 12 12 12 12 12 12 12 12 12
31 32 33 34 34 34 32 32 32 31 31 30 30 30 30 28 26 24 22 21 20 20 19 19 19 17 16 16 16 16 15 15 15 15 15 15 14 14 14 14 14 14 14 13 13 13 13 13 13
30 31 33 33 33 32 32 32 32 31 31 30 30 31 31 29 27 25 24 23 21 21 21 21 20 19 18 17 17 17 17 16 16 16 15 15 15 15 15 16 16 16 16 16 15 15 15 15 15
30 30 31 31 31 30 30 31 32 31 30 31 31 30 30 29 28 27 25 24 23 22 22 22 22 20 19 19 19 18 18 17 16 16 16 16 16 16 16 16 16 17 17 17 18 17 17 17 17
30 29 29 29 29 29 30 31 32 32 31 30 30 30 30 29 28 27 27 26 24 23 22 22 22 22 21 20 20 19 19 18 18 17 17 18 18 18 18 18 18 18 19 19 19 19 19 19 20
27 28 28 28 28 28 30 31 32 32 32 31 30 30 29 29 29 28 27 26 25 24 23 23 23 22 22 22 21 21 20 19 19 19 19 19 19 19 20 20 20 20 20 21 21 21 21 21 21
24 26 27 26 26 27 29 30 31 31 31 31 31 30 29 29 29 29 28 27 26 25 24 24 23 23 23 23 22 22 21 21 21 21 20 20 21 22 22 22 22 22 22 23 23 23 23 23 23
21 23 23 24 25 26 28 29 30 31 30 30 30 30 30 29 29 29 29 28 27 26 25 25 24 24 23 23 23 23 23 23 23 22 22 22 22 23 23 23 24 24 24 24 25 25 25 25 25
19 21 21 22 23 24 26 27 28 29 30 30 30 30 30 30 30 30 30 29 28 27 26 25 25 26 25 24 24 24 24 24 24 23 23 23 23 23 24 25 25 25 25 25 26 27 27 27 26
19 19 19 21 22 23 24 25 27 28 29 29 29 29 30 30 30 31 30 30 29 28 27 26 26 26 26 25 24 25 25 25 25 24 24 24 24 24 25 26 26 26 26 26 26 28 28 28 28
18 17 18 19 21 22 24 24 26 27 28 29 29 29 28 30 30 31 30 29 29 28 27 28 27 26 26 26 25 25 25 26 25 25 25 25 25 25 25 26 27 27 27 27 27 28 29 29 30
17 16 17 18 19 21 22 23 25 26 27 28 29 29 29 29 30 30 30 30 29 28 28 28 28 27 26 27 27 27 26 27 26 26 26 26 26 26 26 26 27 28 28 28 28 29 30 30 31
16 17 17 17 18 19 21 22 23 25 26 27 27 28 29 29 29 30 30 30 30 29 29 29 29 29 28 27 28 28 28 28 28 28 28 27 27 28 28 28 28 29 30 30 30 30 30 31 32
16 16 16 16 18 18 19 20 21 23 24 26 26 27 27 28 29 30 30 29 29 30 31 31 31 30 29 29 28 28 28 29 29 29 29 29 29 29 30 30 30 30 31 31 31 31 31 32 33
14 14 14 14 16 17 18 18 20 21 22 24 24 25 26 26 28 29 29 28 29 30 30 31 31 30 30 29 29 28 29 29 29 30 30 30 30 30 31 31 30 31 31 32 32 32 32 32 33
13 13 14 14 16 16 17 17 18 19 21 22 24 24 25 26 26 27 28 28 28 28 29 30 30 30 30 30 29 29 30 30 30 30 30 30 31 32 32 32 32 32 33 33 34 34 35 34 34
12 13 13 13 15 15 15 16 18 19 20 22 23 24 25 26 26 26 27 28 28 28 29 29 29 29 30 30 30 30 30 31 31 31 31 32 32 33 34 34 34 34 34 35 36 36 37 36 37
13 13 12 12 14 14 14 15 17 18 20 21 23 24 25 25 25 25 25 26 27 28 28 28 29 29 29 30 30 31 32 32 33 33 32 33 33 34 35 36 36 36 36 37 38 39 39 39 39
13 13 12 12 13 14 14 14 16 18 19 20 21 22 23 24 24 24 25 25 25 27 27 27 28 29 29 30 30 31 32 33 34 35 35 35 35 35 36 37 37 38 38 38 39 39 40 41 41
14 13 13 12 13 13 14 14 16 18 19 20 21 22 23 24 25 25 25 26 26 27 28 28 29 29 30 30 31 32 33 34 35 35 36 37 38 38 39 39 39 39 40 40 40 40 41 41 43
13 13 12 12 12 12 13 14 15 18 20 20 21 23 24 25 26 26 27 27 28 28 28 29 29 30 31 32 32 33 33 34 36 36 37 38 39 40 40 41 41 41 41 41 41 42 43 43 44
13 12 13 13 13 13 15 16 15 18 19 20 21 23 24 26 27 27 28 28 28 28 29 30 31 31 32 32 33 34 35 35 36 37 38 39 39 40 41 42 42 42 43 43 43 44 44 44 45
13 13 14 14 14 14 15 17 17 19 19 20 21 23 24 26 27 28 29 29 29 29 30 30 31 32 32 33 34 34 35 35 36 37 38 39 40 41 42 43 43 43 44 44 44 44 45 45 45
15 15 15 15 15 15 16 17 18 19 20 21 21 23 24 26 27 28 29 30 31 31 31 32 33 33 33 34 34 35 36 36 36 38 39 40 41 42 43 44 44 44 44 45 45 45 46 46 46
16 16 16 18 18 17 17 17 18 19 20 21 22 23 24 26 27 28 29 31 32 33 33 33 34 34 34 35 35 36 37 38 39 40 41 42 43 44 44 44 44 44 44 44 45 45 45 45 45
17 17 17 19 19 19 19 19 19 20 21 22 23 24 25 26 27 29 30 32 33 34 35 35 35 35 36 36 37 38 39 39 41 42 43 43 44 45 45 45 45 44 44 44 44 45 45 45 45
18 18 19 20 21 21 20 19 20 20 21 23 25 26 26 27 27 29 31 33 34 35 35 36 36 36 37 38 39 40 41 42 42 43 44 44 44 44 44 44 44 45 45 45 45 45 46 46 45
21 21 22 22 23 23 23 21 20 21 22 24 25 26 27 28 28 29 31 32 34 35 36 37 37 38 39 40 41 41 42 43 43 43 44 44 44 44 45 45 45 45 45 45 45 44 45 45 45
24 24 24 24 25 26 26 24 22 23 25 26 27 28 29 29 29 31 32 33 34 35 36 38 39 39 40 41 42 43 43 44 45 45 45 45 45 45 45 45 45 45 45 45 45 45 44 44 45
Wind_Direction
259 256 255 254 252 250 248 247 246 244 243 242 242 241 240 240 239 239 238 237 238 238 239 240 242 242 244 246 248 250 250 250 249 248 249 252 256 257 258 260 261 262 265 266 267 269 270 271 272
258 255 255 254 251 250 248 247 245 243 242 241 241 240 240 238 237 237 236 236 238 238 239 241 243 242 244 247 249 250 251 251 250 251 252 252 255 257 257 259 261 261 262 264 266 268 269 269 270
258 255 254 254 250 249 249 247 245 244 242 240 239 238 239 237 236 237 236 236 236 237 238 241 242 242 244 247 249 250 251 252 252 253 253 254 254 256 258 259 260 261 263 265 265 267 269 270 270
259 257 255 254 250 248 248 245 244 243 241 239 238 238 239 238 237 236 236 236 236 238 239 242 244 244 245 247 250 252 253 253 253 254 254 255 256 258 261 262 261 261 263 265 266 267 269 270 271
260 259 257 254 250 247 245 243 243 243 240 238 237 237 238 237 236 235 234 236 237 238 240 243 245 245 245 248 250 252 252 252 253 254 253 253 256 259 261 264 263 263 264 265 267 268 268 269 271
260 259 257 255 251 247 243 242 242 243 241 238 237 236 235 235 234 234 234 235 236 239 241 244 246 246 245 246 248 249 250 251 252 253 254 255 258 260 261 264 266 265 265 266 267 268 269 270 271
260 259 257 254 252 248 243 242 241 240 239 238 236 234 233 233 234 234 234 235 236 237 241 243 246 245 246 246 247 249 249 250 252 254 256 257 259 261 262 263 265 266 267 267 267 268 269 270 271
264 261 258 255 254 250 244 242 241 239 237 237 235 233 233 233 234 234 235 236 237 237 241 243 245 247 248 247 247 249 251 251 253 255 257 259 261 262 263 264 265 267 268 268 268 269 270 271 271
266 262 260 258 256 251 245 242 240 239 237 235 235 233 233 234 234 234 235 237 237 239 241 243 245 246 244 244 245 248 250 252 254 255 257 260 262 263 262 263 265 267 268 268 268 268 270 271 271
266 266 262 258 257 252 245 241 239 240 238 236 235 233 234 234 235 235 236 237 238 241 242 243 244 245 245 244 245 247 250 252 254 256 258 260 262 263 262 263 265 267 268 270 269 269 270 270 271
267 267 264 259 255 251 245 241 239 240 237 235 233 233 233 234 235 235 236 238 239 240 242 242 242 244 245 246 247 249 250 252 256 257 260 261 262 264 264 264 265 266 269 270 271 271 270 270 270
269 270 265 258 255 251 248 243 242 240 236 234 232 232 233 234 235 235 236 238 237 239 241 242 242 244 247 249 250 250 251 253 255 257 259 261 262 264 265 265 266 267 269 271 273 273 272 271 271
266 267 267 260 255 251 248 244 242 239 236 233 231 230 232 233 233 233 236 238 238 239 241 242 244 245 247 249 251 252 253 253 254 256 258 260 262 263 264 265 266 268 270 272 273 273 273 272 272
267 267 268 264 259 254 248 243 242 237 235 231 229 229 231 232 233 234 236 239 240 241 243 245 247 248 248 249 251 254 253 254 256 257 258 260 262 263 264 266 268 270 271 273 274 274 273 272 271
272 272 270 266 261 258 250 245 242 234 235 231 229 229 230 231 233 235 240 242 241 242 244 246 248 249 250 251 253 254 255 255 256 258 258 260 262 263 265 267 269 271 272 273 276 276 275 274 273
277 275 275 268 260 261 251 244 240 235 234 232 232 231 232 233 235 238 241 242 243 244 245 246 248 249 251 253 255 256 256 256 256 258 259 260 262 264 266 267 268 270 272 274 276 277 276 275 274
282 281 279 271 261 262 252 243 240 237 235 234 233 232 233 236 239 240 242 244 245 247 248 248 249 250 252 254 257 257 257 257 257 259 260 262 264 265 267 268 269 270 272 273 275 275 275 275 274
286 286 284 272 263 261 252 242 242 240 237 235 235 235 236 239 243 243 244 246 248 249 250 250 250 251 252 255 256 257 257 257 257 260 263 264 265 266 268 269 270 271 272 273 274 274 275 274 274
290 287 282 270 263 257 251 244 244 244 239 236 236 237 238 241 245 245 247 248 248 250 251 251 251 252 253 254 256 257 259 259 260 261 263 265 267 267 269 271 271 271 272 273 274 275 274 274 274
292 289 279 270 264 257 249 244 242 243 241 237 237 238 239 241 244 246 247 250 251 251 251 252 252 254 255 256 258 259 261 262 263 264 265 266 268 269 270 271 272 273 273 273 273 274 274 274 274
289 284 280 269 264 259 253 246 243 244 241 239 239 240 240 242 244 247 250 251 251 252 253 254 254 255 256 258 260 261 263 263 265 266 268 269 270 270 271 271 273 273 273 274 274 274 275 275 275
287 283 276 270 264 258 257 253 244 245 244 243 242 243 244 245 247 248 251 252 254 254 254 254 255 256 258 259 260 262 264 265 267 267 269 270 271 271 272 273 275 275 274 274 275 275 276 276 276
289 281 281 277 269 264 262 260 251 249 247 248 247 247 247 248 249 250 252 254 254 254 254 255 255 257 260 261 262 263 265 267 269 269 270 271 272 273 273 275 276 276 276 276 276 276 276 276 276
288 283 280 277 272 269 267 264 258 255 255 255 253 251 251 252 252 253 254 255 255 255 255 257 257 259 260 262 263 264 266 268 270 270 272 272 273 274 275 276 277 278 278 277 277 277 277 276 276
287 284 282 279 275 274 273 268 265 261 259 260 259 257 255 256 257 257 256 256 257 257 257 258 259 260 262 263 265 267 268 269 270 272 273 274 274 275 276 276 277 278 278 278 278 278 278 277 276
289 285 283 282 280 276 273 271 270 267 265 264 263 262 261 260 260 259 259 258 258 259 260 261 262 262 264 265 266 269 270 271 272 273 275 275 276 276 277 277 278 278 278 278 278 278 278 279 278
287 284 285 286 283 279 277 275 272 268 267 265 264 264 263 262 263 262 262 261 261 261 261 262 264 264 265 267 268 270 271 273 274 275 275 276 277 277 277 277 277 278 277 278 278 278 279 279 279
283 283 284 286 285 284 283 280 275 271 269 266 264 264 264 265 265 265 264 263 263 263 263 264 265 265 266 268 270 272 273 274 275 277 276 277 277 277 277 278 278 278 278 279 279 279 279 279 278
280 281 282 282 283 284 285 284 280 275 272 269 266 266 267 268 267 267 266 265 264 264 264 264 266 266 268 269 272 273 274 275 276 277 277 277 278 278 278 278 279 278 279 279 279 279 279 279 278
279 280 281 281 283 282 283 285 281 277 275 272 270 270 270 270 270 269 269 268 267 266 266 267 268 268 270 271 272 274 275 276 276 277 278 278 279 279 279 278 278 278 278 278 279 278 279 279 278
Height
5790 5791 5792 5793 5794 5795 5798 5802 5806 5810 5812 5815 5818 5820 5823 5827 5830 5835 5836 5837 5839 5840 5842 5843 5845 5846 5848 5849 5850 5851 5853 5854 5855 5856 5857 5858 5859 5860 5861 5862 5863 5863 5864 5865 5866 5866 5867 5868 5869
5782 5783 5785 5784 5785 5788 5792 5796 5799 5803 5806 5809 5812 5815 5818 5821 5824 5828 5830 5832 5834 5837 5839 5840 5842 5843 5844 5846 5847 5848 5850 5851 5852 5853 5854 5855 5856 5857 5858 5859 5860 5861 5862 5863 5864 5864 5865 5865 5866
5774 5775 5777 5776 5778 5782 5786 5790 5793 5796 5799 5803 5806 5808 5812 5816 5819 5823 5826 5828 5831 5833 5835 5837 5838 5840 5841 5843 5844 5845 5846 5848 5848 5850 5851 5852 5853 5854 5855 5856 5857 5858 5859 5860 5861 5862 5862 5863 5863
5767 5768 5769 5770 5771 5776 5780 5783 5786 5789 5793 5796 5800 5803 5806 5811 5815 5818 5821 5824 5827 5829 5831 5833 5835 5836 5838 5839 5840 5842 5843 5844 5845 5846 5847 5849 5850 5851 5852 5853 5854 5855 5856 5857 5858 5858 5859 5860 5860
5759 5760 5761 5762 5766 5770 5773 5776 5779 5783 5786 5790 5794 5797 5801 5806 5809 5813 5816 5819 5822 5825 5827 5829 5830 5832 5833 5835 5837 5838 5839 5841 5842 5843 5844 5845 5846 5847 5848 5849 5850 5851 5852 5853 5854 5855 5855 5856 5857
5752 5753 5755 5757 5761 5764 5766 5769 5772 5776 5780 5784 5788 5792 5796 5800 5804 5808 5812 5815 5818 5820 5822 5824 5826 5828 5829 5831 5832 5834 5835 5837 5838 5839 5840 5841 5843 5844 5844 5845 5846 5847 5848 5849 5850 5851 5852 5852 5853
5747 5748 5749 5752 5754 5757 5760 5763 5766 5770 5774 5779 5783 5787 5791 5795 5799 5803 5807 5810 5813 5815 5818 5820 5822 5823 5825 5827 5828 5830 5831 5833 5834 5835 5836 5838 5839 5839 5840 5841 5842 5843 5844 5845 5846 5846 5847 5848 5849
5741 5743 5744 5746 5749 5752 5754 5757 5760 5764 5769 5773 5777 5782 5786 5791 5794 5798 5802 5805 5808 5810 5813 5815 5817 5819 5820 5822 5824 5825 5826 5828 5829 5831 5832 5833 5834 5835 5836 5837 5838 5838 5839 5840 5841 5842 5843 5843 5844
5737 5739 5739 5742 5744 5746 5748 5751 5755 5759 5763 5768 5772 5777 5781 5785 5789 5793 5797 5800 5802 5805 5807 5809 5812 5813 5815 5817 5818 5820 5822 5823 5825 5826 5827 5828 5829 5830 5831 5832 5833 5833 5834 5835 5836 5836 5837 5838 5839
5733 5733 5735 5738 5739 5741 5743 5746 5750 5754 5758 5762 5767 5771 5775 5779 5783 5788 5791 5794 5797 5800 5802 5804 5806 5808 5809 5811 5813 5815 5817 5818 5819 5821 5822 5823 5824 5825 5826 5827 5828 5828 5829 5830 5830 5831 5831 5832 5833
5729 5730 5731 5732 5734 5736 5739 5741 5745 5748 5753 5757 5761 5765 5769 5773 5777 5781 5785 5788 5792 5794 5797 5799 5800 5801 5803 5805 5808 5810 5811 5813 5814 5815 5817 5818 5819 5820 5820 5821 5822 5823 5823 5824 5824 5825 5826 5826 5827
5726 5726 5727 5728 5729 5732 5734 5737 5740 5744 5748 5752 5756 5760 5764 5768 5771 5775 5779 5782 5785 5788 5790 5792 5793 5795 5798 5800 5802 5804 5806 5807 5809 5810 5811 5812 5813 5814 5815 5816 5816 5817 5818 5818 5819 5819 5819 5820 5820
5722 5723 5723 5724 5726 5728 5730 5733 5736 5739 5743 5747 5751 5755 5758 5762 5766 5769 5773 5776 5779 5781 5783 5786 5787 5790 5792 5794 5796 5798 5800 5801 5803 5804 5805 5806 5807 5808 5809 5810 5810 5811 5811 5812 5812 5812 5813 5813 5814
5720 5720 5721 5721 5722 5724 5727 5729 5732 5735 5738 5742 5746 5750 5753 5757 5760 5764 5767 5770 5772 5775 5777 5780 5782 5784 5786 5788 5790 5792 5793 5795 5796 5798 5799 5800 5801 5802 5803 5803 5804 5804 5805 5805 5806 5806 5806 5806 5806
5717 5718 5718 5718 5719 5721 5724 5726 5728 5730 5734 5737 5741 5745 5748 5752 5755 5759 5761 5764 5767 5769 5772 5774 5776 5778 5780 5782 5784 5786 5787 5788 5790 5791 5792 5793 5794 5795 5796 5797 5797 5798 5798 5798 5798 5799 5799 5799 5799
5714 5715 5715 5716 5716 5718 5721 5723 5725 5727 5730 5734 5738 5741 5744 5747 5750 5753 5756 5759 5761 5763 5766 5768 5770 5772 5774 5776 5778 5779 5780 5782 5783 5784 5785 5786 5787 5788 5789 5790 5790 5791 5791 5791 5791 5792 5791 5791 5792
5712 5712 5713 5713 5714 5715 5717 5720 5721 5724 5727 5730 5734 5737 5740 5743 5746 5749 5751 5753 5756 5758 5760 5762 5764 5766 5768 5770 5771 5772 5773 5775 5776 5777 5778 5779 5780 5781 5782 5782 5783 5783 5784 5784 5784 5784 5784 5784 5784
5711 5711 5710 5711 5712 5713 5715 5717 5719 5721 5724 5727 5730 5733 5736 5738 5741 5744 5746 5748 5750 5752 5754 5756 5758 5760 5762 5763 5764 5765 5766 5768 5769 5769 5770 5772 5772 5773 5774 5774 5775 5775 5776 5776 5776 5776 5776 5775 5775
5709 5709 5708 5709 5709 5711 5712 5715 5716 5718 5720 5723 5726 5729 5732 5734 5736 5739 5741 5743 5745 5747 5749 5750 5752 5754 5755 5756 5758 5759 5760 5761 5761 5762 5763 5764 5765 5765 5766 5766 5767 5767 5767 5767 5767 5767 5767 5767 5766
5707 5707 5707 5707 5707 5709 5710 5712 5713 5715 5717 5719 5722 5724 5727 5730 5732 5734 5736 5738 5740 5741 5743 5745 5746 5747 5749 5750 5751 5752 5753 5754 5754 5755 5755 5756 5757 5757 5758 5758 5758 5758 5758 5758 5758 5758 5757 5757 5757
5706 5706 5705 5706 5706 5706 5708 5710 5711 5712 5714 5716 5718 5720 5723 5725 5727 5729 5731 5733 5734 5736 5737 5739 5740 5741 5742 5743 5744 5745 5746 5746 5747 5747 5747 5748 5748 5748 5749 5749 5749 5749 5748 5748 5748 5748 5747 5747 5746
5704 5704 5704 5704 5704 5705 5706 5707 5709 5709 5711 5712 5715 5717 5719 5721 5723 5724 5726 5727 5729 5730 5731 5732 5733 5734 5735 5736 5737 5738 5738 5738 5739 5739 5739 5739 5739 5739 5739 5739 5739 5739 5738 5738 5738 5737 5737 5736 5736
5702 5702 5702 5702 5702 5703 5704 5704 5707 5706 5707 5709 5711 5713 5714 5716 5717 5718 5720 5721 5722 5724 5725 5725 5726 5728 5729 5729 5730 5730 5730 5730 5730 5730 5730 5730 5730 5730 5730 5729 5729 5729 5728 5728 5727 5727 5726 5725 5725
5700 5700 5700 5699 5700 5701 5702 5702 5704 5704 5705 5706 5707 5708 5709 5710 5712 5713 5714 5715 5716 5717 5718 5719 5719 5720 5721 5722 5722 5722 5722 5722 5722 5722 5722 5721 5721 5720 5720 5719 5719 5718 5717 5717 5716 5715 5714 5714 5713
5698 5698 5697 5696 5696 5698 5698 5698 5700 5700 5701 5701 5702 5703 5704 5705 5706 5707 5708 5709 5709 5710 5711 5712 5712 5712 5713 5713 5714 5714 5714 5714 5713 5713 5712 5712 5711 5710 5709 5709 5708 5707 5707 5706 5705 5704 5703 5702 5701
5695 5695 5695 5694 5693 5694 5694 5694 5696 5696 5696 5696 5697 5698 5698 5699 5700 5700 5701 5701 5702 5703 5703 5704 5704 5704 5705 5705 5705 5705 5705 5704 5704 5703 5702 5702 5701 5700 5699 5698 5697 5696 5695 5694 5693 5692 5691 5690 5689
5692 5691 5691 5690 5689 5690 5690 5691 5691 5691 5690 5691 5691 5692 5692 5693 5693 5693 5694 5694 5694 5695 5695 5695 5696 5696 5696 5696 5696 5696 5696 5695 5694 5693 5692 5691 5690 5689 5688 5687 5686 5684 5684 5682 5681 5680 5679 5678 5677
5688 5687 5687 5685 5684 5684 5685 5685 5686 5685 5685 5685 5685 5685 5685 5686 5686 5686 5686 5686 5686 5687 5687 5687 5687 5687 5687 5687 5686 5686 5685 5684 5683 5682 5681 5679 5678 5677 5676 5675 5673 5673 5671 5670 5670 5669 5667 5666 5665
5684 5683 5681 5680 5680 5679 5679 5682 5680 5679 5679 5679 5678 5678 5678 5679 5679 5679 5678 5678 5678 5678 5678 5678 5677 5677 5677 5676 5676 5675 5674 5673 5672 5671 5669 5668 5666 5665 5663 5662 5661 5660 5659 5658 5657 5656 5655 5654 5653
5677 5677 5676 5676 5675 5673 5672 5677 5674 5673 5672 5671 5671 5671 5671 5671 5671 5670 5670 5669 5669 5668 5668 5668 5667 5667 5666 5666 5665 5664 5663 5661 5660 5659 5657 5656 5654 5653 5651 5650 5649 5648 5647 5646 5645 5644 5643 5641 5640